| time (UTC) | temp F | wind direction | speed MPH | gust MPH | rain 1hr in | rain 24hr in | rain mn in | humidity % | barometer mb |
| 20260506155621 | 75 | 225 | 9.0 | 18.0 | 0.00 | 0.00 | 0.00 | 44 | 999.5 |
| 20260506155103 | 75 | 224 | 9.0 | 18.0 | 0.00 | 0.00 | 0.00 | 44 | 999.5 |
| 20260506155003 | 75 | 221 | 10.0 | 18.0 | 0.00 | 0.00 | 0.00 | 44 | 999.8 |
| 20260506154903 | 75 | 218 | 10.0 | 18.0 | 0.00 | 0.00 | 0.00 | 43 | 999.7 |
| 20260506154803 | 75 | 217 | 10.0 | 18.0 | 0.00 | 0.00 | 0.00 | 43 | 999.7 |
| 20260506154703 | 76 | 217 | 10.0 | 18.0 | 0.00 | 0.00 | 0.00 | 43 | 999.7 |
| 20260506154603 | 76 | 214 | 10.0 | 18.0 | 0.00 | 0.00 | 0.00 | 43 | 999.7 |
| 20260506154503 | 76 | 213 | 11.0 | 18.0 | 0.00 | 0.00 | 0.00 | 44 | 999.9 |
| 20260506154404 | 76 | 214 | 10.0 | 18.0 | 0.00 | 0.00 | 0.00 | 44 | 999.7 |
| 20260506154303 | 76 | 212 | 9.0 | 17.0 | 0.00 | 0.00 | 0.00 | 43 | 999.8 |
| 20260506154218 | 76 | 210 | 9.0 | 17.0 | 0.00 | 0.00 | 0.00 | 43 | 999.8 |
| 20260506154203 | 76 | 210 | 9.0 | 17.0 | 0.00 | 0.00 | 0.00 | 43 | 999.8 |
| 20260506154103 | 76 | 208 | 8.0 | 17.0 | 0.00 | 0.00 | 0.00 | 42 | 999.8 |
| 20260506153903 | 76 | 209 | 7.0 | 17.0 | 0.00 | 0.00 | 0.00 | 43 | 999.7 |
| 20260506153803 | 76 | 209 | 7.0 | 17.0 | 0.00 | 0.00 | 0.00 | 43 | 999.7 |
| 20260506153703 | 76 | 212 | 7.0 | 17.0 | 0.00 | 0.00 | 0.00 | 45 | 999.8 |
| 20260506153503 | 75 | 217 | 6.0 | 16.0 | 0.00 | 0.00 | 0.00 | 46 | 999.9 |
| 20260506153403 | 75 | 216 | 6.0 | 16.0 | 0.00 | 0.00 | 0.00 | 47 | 999.8 |
| 20260506153317 | 75 | 217 | 7.0 | 16.0 | 0.00 | 0.00 | 0.00 | 45 | 999.8 |
| 20260506153303 | 75 | 217 | 7.0 | 16.0 | 0.00 | 0.00 | 0.00 | 45 | 999.8 |
| 20260506153203 | 75 | 219 | 7.0 | 16.0 | 0.00 | 0.00 | 0.00 | 43 | 999.5 |
| 20260506153003 | 74 | 221 | 8.0 | 16.0 | 0.00 | 0.00 | 0.00 | 45 | 999.7 |
| 20260506152903 | 74 | 221 | 8.0 | 16.0 | 0.00 | 0.00 | 0.00 | 44 | 999.7 |
| 20260506152803 | 75 | 220 | 8.0 | 16.0 | 0.00 | 0.00 | 0.00 | 45 | 999.7 |
| 20260506152703 | 75 | 220 | 8.0 | 16.0 | 0.00 | 0.00 | 0.00 | 45 | 999.7 |
| 20260506152603 | 75 | 219 | 8.0 | 16.0 | 0.00 | 0.00 | 0.00 | 44 | 999.7 |
| 20260506152503 | 75 | 219 | 8.0 | 17.0 | 0.00 | 0.00 | 0.00 | 44 | 999.8 |
| 20260506152403 | 75 | 217 | 8.0 | 17.0 | 0.00 | 0.00 | 0.00 | 44 | 999.7 |
| 20260506152305 | 75 | 217 | 8.0 | 18.0 | 0.00 | 0.00 | 0.00 | 44 | 999.5 |
| 20260506152203 | 75 | 218 | 8.0 | 18.0 | 0.00 | 0.00 | 0.00 | 44 | 999.4 |
| 20260506152103 | 75 | 219 | 8.0 | 18.0 | 0.00 | 0.00 | 0.00 | 44 | 999.7 |
| 20260506152003 | 75 | 222 | 9.0 | 18.0 | 0.00 | 0.00 | 0.00 | 43 | 999.7 |
| 20260506151903 | 75 | 225 | 10.0 | 18.0 | 0.00 | 0.00 | 0.00 | 44 | 999.7 |
| 20260506151803 | 75 | 228 | 10.0 | 18.0 | 0.00 | 0.00 | 0.00 | 43 | 999.7 |
| 20260506151703 | 76 | 229 | 10.0 | 18.0 | 0.00 | 0.00 | 0.00 | 43 | 999.7 |
| 20260506151603 | 76 | 229 | 10.0 | 18.0 | 0.00 | 0.00 | 0.00 | 42 | 999.5 |
| 20260506151503 | 76 | 229 | 10.0 | 18.0 | 0.00 | 0.00 | 0.00 | 41 | 999.5 |
| 20260506151403 | 76 | 231 | 10.0 | 18.0 | 0.00 | 0.00 | 0.00 | 42 | 999.3 |
| 20260506151303 | 76 | 231 | 10.0 | 18.0 | 0.00 | 0.00 | 0.00 | 41 | 999.7 |
| 20260506151203 | 76 | 230 | 10.0 | 18.0 | 0.00 | 0.01 | 0.00 | 41 | 999.5 |
| 20260506151103 | 77 | 229 | 9.0 | 17.0 | 0.00 | 0.03 | 0.00 | 42 | 999.5 |
| 20260506151003 | 77 | 226 | 9.0 | 17.0 | 0.00 | 0.06 | 0.00 | 42 | 999.5 |
| 20260506150903 | 76 | 225 | 9.0 | 16.0 | 0.00 | 0.11 | 0.00 | 42 | 999.7 |
| 20260506150803 | 76 | 223 | 9.0 | 16.0 | 0.00 | 0.17 | 0.00 | 42 | 999.4 |
| 20260506150716 | 76 | 222 | 9.0 | 17.0 | 0.00 | 0.21 | 0.00 | 43 | 999.5 |
| 20260506150703 | 76 | 222 | 9.0 | 17.0 | 0.00 | 0.21 | 0.00 | 43 | 999.5 |
| 20260506150603 | 76 | 223 | 9.0 | 17.0 | 0.00 | 0.21 | 0.00 | 42 | 999.7 |
| 20260506150304 | 77 | 221 | 10.0 | 20.0 | 0.00 | 0.21 | 0.00 | 41 | 999.4 |
| 20260506150217 | 77 | 221 | 10.0 | 20.0 | 0.00 | 0.21 | 0.00 | 43 | 999.4 |
| 20260506150203 | 77 | 221 | 10.0 | 20.0 | 0.00 | 0.21 | 0.00 | 43 | 999.4 |
| 20260506150103 | 77 | 221 | 10.0 | 20.0 | 0.00 | 0.21 | 0.00 | 41 | 999.4 |
| 20260506145904 | 76 | 222 | 11.0 | 20.0 | 0.00 | 0.21 | 0.00 | 41 | 999.4 |
| 20260506145803 | 76 | 220 | 11.0 | 20.0 | 0.00 | 0.21 | 0.00 | 43 | 999.4 |
| 20260506145718 | 76 | 219 | 11.0 | 20.0 | 0.00 | 0.21 | 0.00 | 41 | 999.3 |
| 20260506145703 | 76 | 219 | 11.0 | 20.0 | 0.00 | 0.21 | 0.00 | 41 | 999.3 |
| 20260506145617 | 76 | 217 | 11.0 | 20.0 | 0.00 | 0.21 | 0.00 | 40 | 999.3 |
| 20260506145603 | 76 | 217 | 11.0 | 20.0 | 0.00 | 0.21 | 0.00 | 40 | 999.3 |
| 20260506145520 | 76 | 216 | 11.0 | 20.0 | 0.00 | 0.21 | 0.00 | 41 | 999.5 |
| 20260506145103 | 75 | 213 | 10.0 | 20.0 | 0.00 | 0.21 | 0.00 | 41 | 999.4 |
| 20260506145003 | 76 | 210 | 10.0 | 20.0 | 0.00 | 0.21 | 0.00 | 41 | 999.5 |
| 20260506144903 | 76 | 208 | 9.0 | 20.0 | 0.00 | 0.21 | 0.00 | 42 | 999.5 |
| 20260506144803 | 76 | 209 | 9.0 | 20.0 | 0.00 | 0.21 | 0.00 | 38 | 999.3 |
| 20260506144703 | 76 | 209 | 9.0 | 20.0 | 0.00 | 0.21 | 0.00 | 40 | 999.4 |
| 20260506144603 | 76 | 208 | 8.0 | 20.0 | 0.00 | 0.24 | 0.00 | 40 | 999.4 |
| 20260506144503 | 76 | 204 | 8.0 | 17.0 | 0.00 | 0.24 | 0.00 | 39 | 999.3 |
| 20260506144403 | 76 | 199 | 9.0 | 17.0 | 0.00 | 0.24 | 0.00 | 39 | 999.3 |
| 20260506144303 | 76 | 195 | 8.0 | 16.0 | 0.00 | 0.24 | 0.00 | 37 | 999.3 |
| 20260506144203 | 76 | 192 | 8.0 | 19.0 | 0.00 | 0.24 | 0.00 | 37 | 999.1 |
| 20260506144103 | 76 | 193 | 8.0 | 19.0 | 0.00 | 0.24 | 0.00 | 39 | 999.4 |
| 20260506144003 | 76 | 194 | 8.0 | 19.0 | 0.00 | 0.24 | 0.00 | 37 | 999.4 |
| 20260506143903 | 76 | 195 | 9.0 | 19.0 | 0.00 | 0.24 | 0.00 | 38 | 999.4 |
| 20260506143803 | 76 | 194 | 9.0 | 19.0 | 0.00 | 0.24 | 0.00 | 38 | 999.5 |
| 20260506143703 | 77 | 190 | 9.0 | 19.0 | 0.00 | 0.24 | 0.00 | 37 | 999.4 |
| 20260506143603 | 77 | 186 | 9.0 | 21.0 | 0.00 | 0.24 | 0.00 | 37 | 999.3 |
| 20260506143503 | 77 | 184 | 10.0 | 21.0 | 0.00 | 0.24 | 0.00 | 37 | 999.3 |
| 20260506143403 | 77 | 184 | 10.0 | 21.0 | 0.00 | 0.24 | 0.00 | 39 | 999.1 |
| 20260506143303 | 77 | 185 | 9.0 | 21.0 | 0.00 | 0.24 | 0.00 | 36 | 999.3 |
| 20260506143219 | 77 | 187 | 9.0 | 21.0 | 0.00 | 0.24 | 0.00 | 38 | 999.3 |
| 20260506143203 | 77 | 187 | 9.0 | 21.0 | 0.00 | 0.24 | 0.00 | 38 | 999.3 |
| 20260506143103 | 78 | 186 | 9.0 | 21.0 | 0.00 | 0.24 | 0.00 | 38 | 999.2 |
| 20260506142903 | 78 | 182 | 9.0 | 21.0 | 0.00 | 0.24 | 0.00 | 37 | 999.2 |
| 20260506142818 | 78 | 181 | 9.0 | 21.0 | 0.00 | 0.24 | 0.00 | 38 | 999.2 |
| 20260506142803 | 78 | 181 | 9.0 | 21.0 | 0.00 | 0.24 | 0.00 | 38 | 999.2 |
| 20260506142703 | 78 | 186 | 9.0 | 21.0 | 0.00 | 0.24 | 0.00 | 35 | 999.2 |
| 20260506142621 | 78 | 189 | 9.0 | 21.0 | 0.00 | 0.24 | 0.00 | 37 | 999.2 |
| 20260506142503 | 78 | 193 | 9.0 | 19.0 | 0.00 | 0.24 | 0.00 | 39 | 999.4 |
| 20260506142319 | 78 | 194 | 9.0 | 19.0 | 0.00 | 0.24 | 0.00 | 36 | 999.2 |
| 20260506142305 | 78 | 194 | 9.0 | 19.0 | 0.00 | 0.24 | 0.00 | 36 | 999.2 |
| 20260506142203 | 78 | 193 | 9.0 | 19.0 | 0.00 | 0.24 | 0.00 | 35 | 999.1 |
| 20260506142019 | 78 | 192 | 9.0 | 19.0 | 0.00 | 0.24 | 0.00 | 36 | 999.3 |
| 20260506142003 | 78 | 192 | 9.0 | 19.0 | 0.00 | 0.24 | 0.00 | 36 | 999.3 |
| 20260506141903 | 78 | 191 | 9.0 | 19.0 | 0.00 | 0.24 | 0.00 | 39 | 999.1 |
| 20260506141703 | 77 | 187 | 8.0 | 19.0 | 0.00 | 0.24 | 0.00 | 37 | 999.2 |
| 20260506141603 | 77 | 186 | 8.0 | 19.0 | 0.00 | 0.24 | 0.00 | 38 | 999.1 |
| 20260506141503 | 77 | 183 | 7.0 | 18.0 | 0.00 | 0.24 | 0.00 | 36 | 999.1 |
| 20260506141403 | 77 | 182 | 7.0 | 18.0 | 0.00 | 0.24 | 0.00 | 37 | 999.3 |
| 20260506141303 | 78 | 177 | 7.0 | 18.0 | 0.00 | 0.24 | 0.00 | 36 | 999.3 |
| 20260506141203 | 78 | 172 | 6.0 | 18.0 | 0.00 | 0.24 | 0.00 | 40 | 999.1 |
| 20260506141104 | 78 | 171 | 6.0 | 14.0 | 0.00 | 0.24 | 0.00 | 36 | 999.1 |
| 20260506141016 | 78 | 169 | 7.0 | 14.0 | 0.00 | 0.24 | 0.00 | 36 | 999.3 |
| 20260506141003 | 78 | 169 | 7.0 | 14.0 | 0.00 | 0.24 | 0.00 | 36 | 999.3 |
| 20260506140903 | 78 | 170 | 7.0 | 14.0 | 0.00 | 0.24 | 0.00 | 37 | 999.4 |
| 20260506140703 | 79 | 169 | 7.0 | 14.0 | 0.00 | 0.24 | 0.00 | 37 | 999.1 |
| 20260506140620 | 79 | 170 | 7.0 | 14.0 | 0.00 | 0.24 | 0.00 | 37 | 999.1 |
| 20260506140603 | 78 | 169 | 7.0 | 14.0 | 0.00 | 0.24 | 0.00 | 38 | 999.1 |
| 20260506140503 | 78 | 167 | 7.0 | 16.0 | 0.00 | 0.24 | 0.00 | 39 | 999.1 |
| 20260506140303 | 78 | 168 | 7.0 | 16.0 | 0.00 | 0.24 | 0.00 | 37 | 999.2 |
| 20260506140203 | 78 | 171 | 8.0 | 19.0 | 0.00 | 0.24 | 0.00 | 37 | 999.3 |
| 20260506140103 | 78 | 170 | 8.0 | 19.0 | 0.00 | 0.24 | 0.00 | 38 | 999.2 |
| 20260506140018 | 78 | 169 | 8.0 | 19.0 | 0.00 | 0.24 | 0.00 | 36 | 999.2 |
| 20260506140003 | 78 | 169 | 8.0 | 19.0 | 0.00 | 0.24 | 0.00 | 36 | 999.2 |
| 20260506135903 | 77 | 168 | 8.0 | 19.0 | 0.00 | 0.24 | 0.00 | 37 | 999.2 |
| 20260506135703 | 78 | 170 | 8.0 | 19.0 | 0.00 | 0.24 | 0.00 | 38 | 999.1 |
| 20260506135617 | 78 | 168 | 9.0 | 19.0 | 0.00 | 0.24 | 0.00 | 38 | 999.1 |
| 20260506135603 | 78 | 167 | 9.0 | 19.0 | 0.00 | 0.24 | 0.00 | 38 | 999.1 |
| 20260506135503 | 78 | 167 | 9.0 | 19.0 | 0.00 | 0.24 | 0.00 | 38 | 999.4 |
| 20260506135306 | 78 | 169 | 8.0 | 19.0 | 0.00 | 0.24 | 0.00 | 36 | 999.2 |
| 20260506135203 | 78 | 168 | 8.0 | 19.0 | 0.00 | 0.24 | 0.00 | 37 | 999.1 |
| 20260506135117 | 78 | 168 | 8.0 | 19.0 | 0.00 | 0.24 | 0.00 | 37 | 999.1 |
| 20260506135103 | 78 | 167 | 7.0 | 17.0 | 0.00 | 0.24 | 0.00 | 37 | 999.1 |
| 20260506135003 | 78 | 165 | 7.0 | 14.0 | 0.00 | 0.24 | 0.00 | 38 | 999.1 |
| 20260506134803 | 78 | 165 | 7.0 | 18.0 | 0.00 | 0.24 | 0.00 | 38 | 999.2 |
| 20260506134703 | 78 | 163 | 7.0 | 18.0 | 0.00 | 0.24 | 0.00 | 38 | 999.0 |
| 20260506134603 | 78 | 162 | 7.0 | 19.0 | 0.00 | 0.24 | 0.00 | 36 | 999.2 |
| 20260506134503 | 78 | 163 | 8.0 | 19.0 | 0.00 | 0.24 | 0.00 | 35 | 999.2 |
| 20260506134403 | 78 | 163 | 8.0 | 19.0 | 0.00 | 0.24 | 0.00 | 36 | 999.2 |
| 20260506134304 | 78 | 163 | 8.0 | 19.0 | 0.00 | 0.24 | 0.00 | 36 | 999.1 |
| 20260506134203 | 78 | 163 | 8.0 | 19.0 | 0.00 | 0.24 | 0.00 | 42 | 999.3 |
| 20260506134120 | 78 | 163 | 8.0 | 19.0 | 0.00 | 0.24 | 0.00 | 36 | 999.2 |
| 20260506134103 | 78 | 163 | 8.0 | 19.0 | 0.00 | 0.24 | 0.00 | 36 | 999.2 |
| 20260506134003 | 78 | 165 | 9.0 | 19.0 | 0.00 | 0.24 | 0.00 | 38 | 999.1 |
| 20260506133803 | 78 | 166 | 9.0 | 19.0 | 0.00 | 0.24 | 0.00 | 37 | 999.4 |
| 20260506133703 | 79 | 167 | 9.0 | 19.0 | 0.00 | 0.24 | 0.00 | 38 | 999.4 |
| 20260506133603 | 79 | 167 | 9.0 | 19.0 | 0.00 | 0.24 | 0.00 | 36 | 999.4 |
| 20260506133503 | 79 | 168 | 9.0 | 19.0 | 0.00 | 0.24 | 0.00 | 36 | 999.4 |
| 20260506133403 | 79 | 167 | 9.0 | 19.0 | 0.00 | 0.24 | 0.00 | 35 | 999.3 |
| 20260506133303 | 79 | 167 | 9.0 | 19.0 | 0.00 | 0.24 | 0.00 | 32 | 999.1 |
| 20260506133203 | 79 | 167 | 9.0 | 19.0 | 0.00 | 0.24 | 0.00 | 35 | 999.1 |
| 20260506133103 | 79 | 168 | 9.0 | 19.0 | 0.00 | 0.24 | 0.00 | 35 | 999.1 |
| 20260506133003 | 79 | 170 | 9.0 | 19.0 | 0.00 | 0.24 | 0.00 | 36 | 999.2 |
| 20260506132919 | 79 | 172 | 9.0 | 22.0 | 0.00 | 0.24 | 0.00 | 36 | 999.3 |
| 20260506132903 | 79 | 174 | 9.0 | 22.0 | 0.00 | 0.24 | 0.00 | 36 | 999.5 |
| 20260506132817 | 79 | 179 | 9.0 | 22.0 | 0.00 | 0.24 | 0.00 | 36 | 999.5 |
| 20260506132803 | 79 | 179 | 9.0 | 22.0 | 0.00 | 0.24 | 0.00 | 36 | 999.5 |
| 20260506132503 | 79 | 183 | 10.0 | 23.0 | 0.00 | 0.24 | 0.00 | 35 | 999.3 |
| 20260506132403 | 79 | 182 | 10.0 | 23.0 | 0.00 | 0.24 | 0.00 | 36 | 999.2 |
| 20260506132306 | 79 | 184 | 10.0 | 23.0 | 0.00 | 0.24 | 0.00 | 37 | 999.2 |
| 20260506132203 | 79 | 184 | 9.0 | 23.0 | 0.00 | 0.24 | 0.00 | 33 | 999.3 |
| 20260506132103 | 79 | 184 | 9.0 | 23.0 | 0.00 | 0.24 | 0.00 | 34 | 999.3 |
| 20260506132018 | 79 | 181 | 9.0 | 23.0 | 0.00 | 0.24 | 0.00 | 35 | 999.1 |
| 20260506132003 | 79 | 180 | 9.0 | 23.0 | 0.00 | 0.24 | 0.00 | 35 | 999.1 |
| 20260506131903 | 79 | 174 | 9.0 | 23.0 | 0.00 | 0.24 | 0.00 | 34 | 999.1 |
| 20260506131703 | 79 | 164 | 9.0 | 23.0 | 0.00 | 0.24 | 0.00 | 33 | 999.4 |
| 20260506131603 | 79 | 163 | 10.0 | 23.0 | 0.00 | 0.24 | 0.00 | 33 | 999.1 |
| 20260506131503 | 80 | 161 | 9.0 | 20.0 | 0.00 | 0.24 | 0.00 | 37 | 999.3 |
| 20260506131403 | 80 | 160 | 9.0 | 20.0 | 0.00 | 0.24 | 0.00 | 41 | 999.2 |
| 20260506131303 | 79 | 159 | 10.0 | 20.0 | 0.00 | 0.24 | 0.00 | 36 | 999.4 |
| 20260506131203 | 79 | 159 | 10.0 | 20.0 | 0.00 | 0.24 | 0.00 | 36 | 999.1 |
| 20260506131103 | 79 | 159 | 10.0 | 20.0 | 0.00 | 0.24 | 0.00 | 36 | 999.1 |
| 20260506131016 | 78 | 159 | 10.0 | 20.0 | 0.00 | 0.24 | 0.00 | 37 | 999.4 |
| 20260506131003 | 78 | 159 | 10.0 | 20.0 | 0.00 | 0.24 | 0.00 | 37 | 999.4 |
| 20260506130903 | 78 | 159 | 10.0 | 20.0 | 0.00 | 0.24 | 0.00 | 37 | 999.3 |
| 20260506130716 | 78 | 159 | 9.0 | 20.0 | 0.00 | 0.24 | 0.00 | 36 | 999.3 |
| 20260506130703 | 78 | 160 | 9.0 | 20.0 | 0.00 | 0.24 | 0.00 | 36 | 999.3 |
| 20260506130603 | 78 | 158 | 9.0 | 19.0 | 0.00 | 0.24 | 0.00 | 39 | 999.4 |
| 20260506130403 | 78 | 158 | 9.0 | 23.0 | 0.00 | 0.24 | 0.00 | 38 | 999.4 |
| 20260506130303 | 78 | 159 | 9.0 | 23.0 | 0.00 | 0.24 | 0.00 | 37 | 999.7 |
| 20260506130203 | 78 | 157 | 9.0 | 23.0 | 0.00 | 0.24 | 0.00 | 36 | 999.2 |
| 20260506130103 | 78 | 155 | 10.0 | 23.0 | 0.00 | 0.24 | 0.00 | 37 | 999.5 |
| 20260506130004 | 78 | 154 | 10.0 | 23.0 | 0.00 | 0.24 | 0.00 | 36 | 999.5 |
| 20260506125903 | 78 | 153 | 11.0 | 23.0 | 0.00 | 0.24 | 0.00 | 36 | 999.4 |
| 20260506125803 | 79 | 153 | 12.0 | 23.0 | 0.00 | 0.24 | 0.00 | 38 | 999.2 |
| 20260506125703 | 78 | 152 | 12.0 | 23.0 | 0.00 | 0.24 | 0.00 | 38 | 999.5 |
| 20260506125603 | 78 | 154 | 12.0 | 23.0 | 0.00 | 0.24 | 0.00 | 37 | 999.5 |
| 20260506125503 | 78 | 155 | 12.0 | 23.0 | 0.00 | 0.24 | 0.00 | 38 | 999.4 |
| 20260506125403 | 78 | 155 | 12.0 | 23.0 | 0.00 | 0.24 | 0.00 | 36 | 999.4 |
| 20260506125305 | 78 | 154 | 11.0 | 23.0 | 0.00 | 0.24 | 0.00 | 39 | 999.4 |
| 20260506125203 | 77 | 154 | 11.0 | 21.0 | 0.00 | 0.24 | 0.00 | 39 | 999.4 |
| 20260506125103 | 77 | 155 | 11.0 | 20.0 | 0.00 | 0.24 | 0.00 | 38 | 999.3 |
| 20260506125003 | 77 | 156 | 11.0 | 20.0 | 0.00 | 0.24 | 0.00 | 36 | 999.2 |
| 20260506124903 | 77 | 158 | 10.0 | 19.0 | 0.00 | 0.24 | 0.00 | 35 | 999.4 |
| 20260506124803 | 77 | 161 | 9.0 | 19.0 | 0.00 | 0.24 | 0.00 | 38 | 999.3 |
| 20260506124703 | 77 | 163 | 10.0 | 19.0 | 0.00 | 0.24 | 0.00 | 36 | 999.3 |
| 20260506124603 | 77 | 161 | 9.0 | 19.0 | 0.00 | 0.24 | 0.00 | 36 | 999.7 |
| 20260506124503 | 78 | 159 | 9.0 | 17.0 | 0.00 | 0.24 | 0.00 | 38 | 999.7 |
| 20260506124403 | 78 | 156 | 9.0 | 17.0 | 0.00 | 0.24 | 0.00 | 37 | 999.2 |
| 20260506124303 | 78 | 156 | 9.0 | 17.0 | 0.00 | 0.24 | 0.00 | 37 | 999.3 |
| 20260506124203 | 78 | 157 | 8.0 | 17.0 | 0.00 | 0.24 | 0.00 | 37 | 999.4 |
| 20260506124103 | 78 | 157 | 8.0 | 17.0 | 0.00 | 0.24 | 0.00 | 38 | 999.5 |
| 20260506124018 | 78 | 156 | 8.0 | 17.0 | 0.00 | 0.24 | 0.00 | 37 | 999.8 |
| 20260506124003 | 78 | 156 | 8.0 | 17.0 | 0.00 | 0.24 | 0.00 | 37 | 999.8 |
| 20260506123903 | 78 | 155 | 8.0 | 17.0 | 0.00 | 0.24 | 0.00 | 34 | 999.4 |
| 20260506123717 | 79 | 149 | 8.0 | 17.0 | 0.00 | 0.24 | 0.00 | 38 | 999.5 |
| 20260506123703 | 79 | 149 | 8.0 | 17.0 | 0.00 | 0.24 | 0.00 | 38 | 999.5 |
| 20260506123603 | 79 | 147 | 8.0 | 17.0 | 0.00 | 0.24 | 0.00 | 34 | 999.3 |
| 20260506123417 | 79 | 152 | 9.0 | 17.0 | 0.00 | 0.24 | 0.00 | 36 | 999.5 |
| 20260506123403 | 79 | 152 | 9.0 | 17.0 | 0.00 | 0.24 | 0.00 | 36 | 999.4 |
| 20260506123303 | 79 | 153 | 9.0 | 17.0 | 0.00 | 0.24 | 0.00 | 35 | 999.4 |
| 20260506123103 | 79 | 151 | 9.0 | 17.0 | 0.00 | 0.24 | 0.00 | 35 | 999.3 |
| 20260506123004 | 79 | 149 | 9.0 | 17.0 | 0.00 | 0.24 | 0.00 | 37 | 999.4 |
| 20260506122903 | 79 | 147 | 9.0 | 17.0 | 0.00 | 0.24 | 0.00 | 36 | 999.4 |
| 20260506122817 | 79 | 145 | 9.0 | 17.0 | 0.00 | 0.24 | 0.00 | 36 | 999.5 |
| 20260506122803 | 79 | 144 | 9.0 | 17.0 | 0.00 | 0.24 | 0.00 | 38 | 999.2 |
| 20260506122703 | 79 | 141 | 9.0 | 17.0 | 0.00 | 0.24 | 0.00 | 38 | 999.2 |
| 20260506122503 | 79 | 142 | 9.0 | 17.0 | 0.00 | 0.24 | 0.00 | 34 | 999.4 |
| 20260506122403 | 79 | 141 | 8.0 | 17.0 | 0.00 | 0.24 | 0.00 | 36 | 999.4 |
| 20260506122305 | 78 | 138 | 7.0 | 17.0 | 0.00 | 0.24 | 0.00 | 42 | 999.3 |
| 20260506122203 | 78 | 140 | 7.0 | 17.0 | 0.00 | 0.24 | 0.00 | 38 | 999.5 |
| 20260506122103 | 77 | 139 | 7.0 | 17.0 | 0.00 | 0.24 | 0.00 | 39 | 999.2 |
| 20260506122018 | 77 | 138 | 7.0 | 17.0 | 0.00 | 0.24 | 0.00 | 36 | 999.4 |
| 20260506122003 | 77 | 139 | 7.0 | 17.0 | 0.00 | 0.24 | 0.00 | 36 | 999.2 |
| 20260506121916 | 77 | 138 | 7.0 | 17.0 | 0.00 | 0.24 | 0.00 | 39 | 999.2 |
| 20260506121903 | 77 | 138 | 6.0 | 17.0 | 0.00 | 0.24 | 0.00 | 39 | 999.2 |
| 20260506121603 | 77 | 151 | 4.0 | 16.0 | 0.00 | 0.24 | 0.00 | 40 | 999.2 |
| 20260506121503 | 77 | 148 | 4.0 | 14.0 | 0.00 | 0.24 | 0.00 | 42 | 999.1 |
| 20260506121403 | 77 | 145 | 5.0 | 14.0 | 0.00 | 0.24 | 0.00 | 40 | 999.5 |
| 20260506121303 | 77 | 150 | 5.0 | 14.0 | 0.00 | 0.24 | 0.00 | 36 | 999.5 |
| 20260506121203 | 77 | 150 | 4.0 | 14.0 | 0.00 | 0.24 | 0.00 | 36 | 999.5 |
| 20260506121103 | 78 | 152 | 4.0 | 14.0 | 0.00 | 0.24 | 0.00 | 35 | 999.5 |
| 20260506121016 | 78 | 155 | 4.0 | 14.0 | 0.00 | 0.24 | 0.00 | 34 | 999.5 |
| 20260506121003 | 78 | 155 | 4.0 | 14.0 | 0.00 | 0.24 | 0.00 | 34 | 999.5 |
| 20260506120903 | 78 | 156 | 4.0 | 14.0 | 0.00 | 0.24 | 0.00 | 35 | 999.5 |
| 20260506120703 | 79 | 155 | 4.0 | 14.0 | 0.00 | 0.24 | 0.00 | 38 | 999.7 |
| 20260506120603 | 79 | 152 | 4.0 | 14.0 | 0.00 | 0.24 | 0.00 | 37 | 999.7 |
| 20260506120503 | 79 | 148 | 4.0 | 14.0 | 0.00 | 0.24 | 0.00 | 40 | 999.7 |
| 20260506120403 | 78 | 141 | 4.0 | 9.0 | 0.00 | 0.24 | 0.00 | 40 | 999.3 |
| 20260506120318 | 79 | 137 | 4.0 | 9.0 | 0.00 | 0.24 | 0.00 | 39 | 999.3 |
| 20260506120303 | 79 | 136 | 4.0 | 9.0 | 0.00 | 0.24 | 0.00 | 39 | 999.3 |
| 20260506120203 | 79 | 131 | 4.0 | 9.0 | 0.00 | 0.24 | 0.00 | 37 | 999.4 |
| 20260506120003 | 79 | 129 | 3.0 | 9.0 | 0.00 | 0.24 | 0.00 | 39 | 999.8 |
| 20260506115916 | 79 | 127 | 3.0 | 9.0 | 0.00 | 0.24 | 0.00 | 44 | 999.7 |
| 20260506115903 | 79 | 126 | 3.0 | 9.0 | 0.00 | 0.24 | 0.00 | 44 | 999.5 |
| 20260506115803 | 79 | 122 | 3.0 | 9.0 | 0.00 | 0.24 | 0.00 | 43 | 999.5 |
| 20260506115603 | 78 | 87 | 3.0 | 9.0 | 0.00 | 0.24 | 0.00 | 43 | 999.4 |
| 20260506115503 | 78 | 79 | 3.0 | 9.0 | 0.00 | 0.24 | 0.00 | 43 | 999.7 |
| 20260506115403 | 78 | 77 | 3.0 | 8.0 | 0.00 | 0.24 | 0.00 | 43 | 999.8 |
| 20260506115306 | 78 | 73 | 2.0 | 6.0 | 0.00 | 0.24 | 0.00 | 41 | 999.8 |
| 20260506115203 | 77 | 63 | 2.0 | 6.0 | 0.00 | 0.24 | 0.00 | 44 | 999.8 |
| 20260506115117 | 77 | 55 | 2.0 | 6.0 | 0.00 | 0.24 | 0.00 | 43 | 999.8 |
| 20260506115103 | 77 | 54 | 2.0 | 6.0 | 0.00 | 0.24 | 0.00 | 43 | 999.8 |
| 20260506115019 | 77 | 50 | 2.0 | 7.0 | 0.00 | 0.24 | 0.00 | 40 | 1000.0 |
| 20260506115003 | 77 | 49 | 2.0 | 7.0 | 0.00 | 0.24 | 0.00 | 40 | 1000.0 |
| 20260506114703 | 76 | 55 | 3.0 | 7.0 | 0.00 | 0.24 | 0.00 | 40 | 999.8 |
| 20260506114618 | 76 | 58 | 3.0 | 7.0 | 0.00 | 0.24 | 0.00 | 40 | 999.8 |
| 20260506114603 | 76 | 59 | 3.0 | 7.0 | 0.00 | 0.24 | 0.00 | 40 | 999.8 |
| 20260506114503 | 76 | 72 | 3.0 | 9.0 | 0.00 | 0.24 | 0.00 | 40 | 999.8 |
| 20260506114419 | 76 | 82 | 3.0 | 9.0 | 0.00 | 0.24 | 0.00 | 42 | 999.8 |
| 20260506114308 | 76 | 95 | 3.0 | 9.0 | 0.00 | 0.24 | 0.00 | 45 | 999.8 |
| 20260506114103 | 76 | 112 | 4.0 | 9.0 | 0.00 | 0.24 | 0.00 | 46 | 1000.0 |
| 20260506114003 | 76 | 121 | 4.0 | 9.0 | 0.00 | 0.24 | 0.00 | 46 | 1000.0 |
| 20260506113903 | 76 | 124 | 4.0 | 9.0 | 0.00 | 0.24 | 0.00 | 43 | 1000.1 |
| 20260506113803 | 76 | 127 | 4.0 | 9.0 | 0.00 | 0.24 | 0.00 | 42 | 1000.1 |
| 20260506113703 | 76 | 134 | 4.0 | 9.0 | 0.00 | 0.24 | 0.00 | 42 | 1000.0 |
| 20260506113603 | 76 | 136 | 4.0 | 9.0 | 0.00 | 0.24 | 0.00 | 49 | 999.9 |
| 20260506113503 | 76 | 134 | 4.0 | 9.0 | 0.00 | 0.24 | 0.00 | 49 | 1000.1 |
| 20260506113403 | 76 | 130 | 4.0 | 9.0 | 0.00 | 0.24 | 0.00 | 45 | 1000.1 |
| 20260506113303 | 76 | 130 | 4.0 | 8.0 | 0.00 | 0.24 | 0.00 | 44 | 1000.0 |
| 20260506113213 | 76 | 129 | 4.0 | 8.0 | 0.00 | 0.24 | 0.00 | 47 | 1000.0 |
| 20260506113103 | 76 | 125 | 4.0 | 8.0 | 0.00 | 0.24 | 0.00 | 45 | 1000.2 |
| 20260506113003 | 76 | 122 | 4.0 | 8.0 | 0.00 | 0.24 | 0.00 | 47 | 1000.2 |
| 20260506112903 | 76 | 123 | 4.0 | 8.0 | 0.00 | 0.24 | 0.00 | 48 | 1000.2 |
| 20260506112803 | 76 | 123 | 4.0 | 8.0 | 0.00 | 0.24 | 0.00 | 45 | 1000.1 |
| 20260506112703 | 76 | 120 | 4.0 | 8.0 | 0.00 | 0.24 | 0.00 | 42 | 1000.1 |
| 20260506112603 | 76 | 118 | 3.0 | 7.0 | 0.00 | 0.24 | 0.00 | 44 | 1000.3 |
| 20260506112503 | 76 | 122 | 3.0 | 7.0 | 0.00 | 0.24 | 0.00 | 44 | 1000.3 |
| 20260506112403 | 76 | 123 | 3.0 | 7.0 | 0.00 | 0.24 | 0.00 | 46 | 1000.4 |
| 20260506112317 | 76 | 121 | 3.0 | 7.0 | 0.00 | 0.24 | 0.00 | 46 | 1000.4 |
| 20260506112305 | 76 | 122 | 3.0 | 7.0 | 0.00 | 0.24 | 0.00 | 46 | 1000.4 |
| 20260506112203 | 76 | 123 | 3.0 | 7.0 | 0.00 | 0.24 | 0.00 | 46 | 1000.2 |
| 20260506112003 | 76 | 133 | 3.0 | 8.0 | 0.00 | 0.24 | 0.00 | 44 | 1000.5 |
| 20260506111903 | 76 | 137 | 3.0 | 8.0 | 0.00 | 0.24 | 0.00 | 41 | 1000.5 |
| 20260506111803 | 76 | 141 | 4.0 | 8.0 | 0.00 | 0.24 | 0.00 | 47 | 1000.5 |
| 20260506111703 | 76 | 148 | 4.0 | 9.0 | 0.00 | 0.24 | 0.00 | 44 | 1000.2 |
| 20260506111603 | 76 | 152 | 4.0 | 9.0 | 0.00 | 0.24 | 0.00 | 47 | 1000.5 |
| 20260506111503 | 76 | 152 | 4.0 | 9.0 | 0.00 | 0.24 | 0.00 | 43 | 1000.5 |
| 20260506111403 | 76 | 155 | 4.0 | 9.0 | 0.00 | 0.24 | 0.00 | 47 | 1000.6 |
| 20260506111203 | 75 | 156 | 4.0 | 9.0 | 0.00 | 0.24 | 0.00 | 48 | 1000.5 |
| 20260506111103 | 75 | 157 | 4.0 | 9.0 | 0.00 | 0.24 | 0.00 | 47 | 1000.5 |
| 20260506111003 | 75 | 157 | 4.0 | 10.0 | 0.00 | 0.24 | 0.00 | 47 | 1000.5 |
| 20260506110903 | 75 | 158 | 4.0 | 10.0 | 0.00 | 0.24 | 0.00 | 45 | 1000.5 |
| 20260506110803 | 75 | 152 | 5.0 | 11.0 | 0.00 | 0.24 | 0.00 | 44 | 1000.2 |
| 20260506110703 | 75 | 145 | 5.0 | 13.0 | 0.00 | 0.24 | 0.00 | 44 | 1000.4 |
| 20260506110604 | 75 | 138 | 5.0 | 13.0 | 0.00 | 0.24 | 0.00 | 47 | 1000.6 |
| 20260506110503 | 75 | 137 | 5.0 | 13.0 | 0.00 | 0.24 | 0.00 | 46 | 1000.3 |
| 20260506110403 | 75 | 136 | 6.0 | 13.0 | 0.00 | 0.24 | 0.00 | 47 | 1000.3 |
| 20260506110303 | 74 | 130 | 6.0 | 13.0 | 0.00 | 0.24 | 0.00 | 47 | 1000.3 |
| 20260506110203 | 74 | 129 | 6.0 | 13.0 | 0.00 | 0.24 | 0.00 | 50 | 1000.3 |
| 20260506110103 | 74 | 128 | 6.0 | 13.0 | 0.00 | 0.24 | 0.00 | 45 | 1000.4 |
| 20260506110003 | 74 | 128 | 6.0 | 13.0 | 0.00 | 0.24 | 0.00 | 49 | 1000.3 |
| 20260506105916 | 74 | 123 | 5.0 | 13.0 | 0.00 | 0.24 | 0.00 | 46 | 1000.3 |
| 20260506105903 | 74 | 123 | 5.0 | 13.0 | 0.00 | 0.24 | 0.00 | 46 | 1000.3 |
| 20260506105803 | 74 | 119 | 5.0 | 13.0 | 0.00 | 0.24 | 0.00 | 45 | 1000.4 |
| 20260506105717 | 74 | 116 | 5.0 | 13.0 | 0.00 | 0.24 | 0.00 | 46 | 1000.4 |
| 20260506105603 | 74 | 112 | 5.0 | 13.0 | 0.00 | 0.24 | 0.00 | 47 | 1000.4 |
| 20260506105403 | 74 | 92 | 4.0 | 8.0 | 0.00 | 0.24 | 0.00 | 45 | 1000.6 |
| 20260506105305 | 74 | 94 | 4.0 | 8.0 | 0.00 | 0.24 | 0.00 | 46 | 1000.4 |
| 20260506105203 | 74 | 91 | 4.0 | 8.0 | 0.00 | 0.24 | 0.00 | 48 | 1000.7 |
| 20260506105116 | 74 | 88 | 4.0 | 8.0 | 0.00 | 0.24 | 0.00 | 48 | 1000.7 |
| 20260506105103 | 74 | 87 | 4.0 | 8.0 | 0.00 | 0.24 | 0.00 | 48 | 1000.7 |
| 20260506105003 | 74 | 76 | 4.0 | 8.0 | 0.00 | 0.24 | 0.00 | 50 | 1000.5 |
| 20260506104803 | 74 | 67 | 4.0 | 7.0 | 0.00 | 0.24 | 0.00 | 45 | 1000.4 |
| 20260506104703 | 75 | 65 | 3.0 | 7.0 | 0.00 | 0.24 | 0.00 | 47 | 1000.6 |
| 20260506104603 | 75 | 68 | 3.0 | 7.0 | 0.00 | 0.24 | 0.00 | 45 | 1000.6 |
| 20260506104503 | 75 | 64 | 3.0 | 7.0 | 0.00 | 0.24 | 0.00 | 49 | 1000.6 |
| 20260506104403 | 75 | 58 | 3.0 | 6.0 | 0.00 | 0.24 | 0.00 | 47 | 1000.8 |
| 20260506104303 | 75 | 64 | 3.0 | 6.0 | 0.00 | 0.24 | 0.00 | 49 | 1000.8 |
| 20260506104203 | 75 | 66 | 3.0 | 6.0 | 0.00 | 0.24 | 0.00 | 52 | 1000.8 |
| 20260506104103 | 74 | 63 | 2.0 | 6.0 | 0.00 | 0.24 | 0.00 | 49 | 1000.6 |
| 20260506104003 | 74 | 71 | 2.0 | 6.0 | 0.00 | 0.24 | 0.00 | 51 | 1000.6 |
| 20260506103903 | 74 | 69 | 2.0 | 6.0 | 0.00 | 0.24 | 0.00 | 53 | 1000.6 |
| 20260506103803 | 74 | 63 | 2.0 | 8.0 | 0.00 | 0.24 | 0.00 | 48 | 1000.6 |
| 20260506103703 | 74 | 69 | 3.0 | 8.0 | 0.00 | 0.24 | 0.00 | 48 | 1000.6 |
| 20260506103619 | 74 | 72 | 3.0 | 12.0 | 0.00 | 0.24 | 0.00 | 48 | 1000.6 |
| 20260506103603 | 74 | 73 | 3.0 | 13.0 | 0.00 | 0.24 | 0.00 | 51 | 1000.7 |
| 20260506103503 | 74 | 79 | 3.0 | 13.0 | 0.00 | 0.24 | 0.00 | 51 | 1000.7 |
| 20260506103319 | 74 | 92 | 4.0 | 13.0 | 0.00 | 0.24 | 0.00 | 55 | 1000.7 |
| 20260506103303 | 74 | 94 | 4.0 | 13.0 | 0.00 | 0.24 | 0.00 | 55 | 1000.6 |
| 20260506103203 | 74 | 96 | 4.0 | 13.0 | 0.00 | 0.24 | 0.00 | 54 | 1000.6 |
| 20260506103116 | 74 | 94 | 4.0 | 13.0 | 0.00 | 0.24 | 0.00 | 52 | 1000.5 |
| 20260506103003 | 74 | 95 | 4.0 | 13.0 | 0.00 | 0.24 | 0.00 | 50 | 1000.8 |
| 20260506102803 | 74 | 108 | 4.0 | 13.0 | 0.00 | 0.24 | 0.00 | 51 | 1000.9 |
| 20260506102703 | 74 | 116 | 5.0 | 13.0 | 0.00 | 0.24 | 0.00 | 54 | 1000.9 |
| 20260506102603 | 73 | 122 | 5.0 | 13.0 | 0.00 | 0.24 | 0.00 | 56 | 1000.8 |
| 20260506102503 | 73 | 127 | 4.0 | 13.0 | 0.00 | 0.24 | 0.00 | 57 | 1000.8 |
| 20260506102403 | 73 | 131 | 4.0 | 11.0 | 0.00 | 0.24 | 0.00 | 51 | 1000.9 |
| 20260506102305 | 73 | 127 | 4.0 | 11.0 | 0.00 | 0.24 | 0.00 | 52 | 1000.9 |
| 20260506102216 | 73 | 121 | 4.0 | 9.0 | 0.00 | 0.24 | 0.00 | 52 | 1000.9 |
| 20260506102203 | 74 | 121 | 4.0 | 9.0 | 0.00 | 0.24 | 0.00 | 53 | 1000.9 |
| 20260506102103 | 74 | 117 | 4.0 | 9.0 | 0.00 | 0.24 | 0.00 | 51 | 1000.9 |
| 20260506101920 | 74 | 119 | 4.0 | 9.0 | 0.00 | 0.24 | 0.00 | 54 | 1000.9 |
| 20260506101903 | 74 | 118 | 4.0 | 9.0 | 0.00 | 0.24 | 0.00 | 54 | 1000.7 |
| 20260506101818 | 74 | 110 | 4.0 | 9.0 | 0.00 | 0.24 | 0.00 | 54 | 1000.7 |
| 20260506101803 | 74 | 105 | 4.0 | 9.0 | 0.00 | 0.24 | 0.00 | 54 | 1001.0 |
| 20260506101503 | 73 | 80 | 4.0 | 9.0 | 0.00 | 0.24 | 0.00 | 60 | 1000.9 |
| 20260506101403 | 73 | 77 | 4.0 | 11.0 | 0.00 | 0.24 | 0.00 | 57 | 1001.0 |
| 20260506101303 | 72 | 84 | 4.0 | 12.0 | 0.00 | 0.24 | 0.00 | 57 | 1001.0 |
| 20260506101203 | 72 | 93 | 4.0 | 12.0 | 0.00 | 0.24 | 0.00 | 59 | 1001.0 |
| 20260506101103 | 72 | 95 | 5.0 | 12.0 | 0.00 | 0.24 | 0.00 | 58 | 1001.0 |
| 20260506101003 | 72 | 90 | 5.0 | 12.0 | 0.00 | 0.24 | 0.00 | 57 | 1000.9 |
| 20260506100903 | 72 | 86 | 5.0 | 12.0 | 0.00 | 0.24 | 0.00 | 57 | 1000.9 |
| 20260506100816 | 72 | 83 | 5.0 | 12.0 | 0.00 | 0.24 | 0.00 | 57 | 1001.0 |
| 20260506100803 | 72 | 83 | 5.0 | 12.0 | 0.00 | 0.24 | 0.00 | 57 | 1000.8 |
| 20260506100703 | 72 | 82 | 5.0 | 12.0 | 0.00 | 0.24 | 0.00 | 56 | 1000.8 |
| 20260506100503 | 72 | 82 | 5.0 | 12.0 | 0.00 | 0.24 | 0.00 | 57 | 1001.0 |
| 20260506100403 | 72 | 78 | 6.0 | 12.0 | 0.00 | 0.24 | 0.00 | 58 | 1000.9 |
| 20260506100317 | 72 | 72 | 6.0 | 12.0 | 0.00 | 0.24 | 0.00 | 58 | 1001.0 |
| 20260506100303 | 71 | 68 | 5.0 | 12.0 | 0.00 | 0.24 | 0.00 | 59 | 1001.1 |
| 20260506100203 | 71 | 58 | 5.0 | 12.0 | 0.00 | 0.24 | 0.00 | 59 | 1001.1 |
| 20260506100003 | 71 | 53 | 4.0 | 9.0 | 0.00 | 0.24 | 0.00 | 57 | 1001.1 |
| 20260506095903 | 71 | 56 | 4.0 | 9.0 | 0.00 | 0.24 | 0.00 | 59 | 1001.1 |
| 20260506095803 | 71 | 54 | 4.0 | 9.0 | 0.00 | 0.24 | 0.00 | 60 | 1001.0 |
| 20260506095703 | 71 | 61 | 4.0 | 9.0 | 0.00 | 0.24 | 0.00 | 59 | 1001.0 |
| 20260506095603 | 70 | 69 | 3.0 | 8.0 | 0.00 | 0.24 | 0.00 | 58 | 1000.8 |
| 20260506095518 | 70 | 78 | 3.0 | 9.0 | 0.00 | 0.24 | 0.00 | 58 | 1000.8 |
| 20260506095503 | 70 | 81 | 3.0 | 9.0 | 0.00 | 0.24 | 0.00 | 58 | 1000.8 |
| 20260506095403 | 71 | 99 | 3.0 | 9.0 | 0.00 | 0.24 | 0.00 | 61 | 1001.3 |
| 20260506095217 | 70 | 119 | 4.0 | 9.0 | 0.00 | 0.24 | 0.00 | 56 | 1001.2 |
| 20260506095203 | 70 | 119 | 4.0 | 9.0 | 0.00 | 0.24 | 0.00 | 56 | 1001.1 |
| 20260506095103 | 71 | 118 | 4.0 | 9.0 | 0.00 | 0.24 | 0.00 | 59 | 1001.1 |
| 20260506095019 | 71 | 117 | 4.0 | 9.0 | 0.00 | 0.24 | 0.00 | 59 | 1001.2 |
| 20260506094903 | 71 | 113 | 4.0 | 9.0 | 0.00 | 0.24 | 0.00 | 58 | 1001.1 |
| 20260506094703 | 71 | 110 | 5.0 | 9.0 | 0.00 | 0.24 | 0.00 | 58 | 1001.1 |
| 20260506094603 | 71 | 102 | 5.0 | 9.0 | 0.00 | 0.24 | 0.00 | 61 | 1001.1 |
| 20260506094503 | 71 | 95 | 5.0 | 10.0 | 0.00 | 0.24 | 0.00 | 59 | 1001.1 |
| 20260506094404 | 71 | 89 | 5.0 | 11.0 | 0.00 | 0.24 | 0.00 | 60 | 1001.1 |
| 20260506094308 | 71 | 83 | 5.0 | 11.0 | 0.00 | 0.24 | 0.00 | 57 | 1001.0 |
| 20260506094203 | 71 | 83 | 5.0 | 11.0 | 0.00 | 0.24 | 0.00 | 59 | 1001.1 |
| 20260506094103 | 71 | 86 | 5.0 | 11.0 | 0.00 | 0.24 | 0.00 | 57 | 1001.1 |
| 20260506094003 | 71 | 90 | 5.0 | 11.0 | 0.00 | 0.24 | 0.00 | 59 | 1001.1 |
| 20260506093903 | 71 | 93 | 5.0 | 11.0 | 0.00 | 0.24 | 0.00 | 59 | 1001.2 |
| 20260506093803 | 71 | 89 | 5.0 | 11.0 | 0.00 | 0.24 | 0.00 | 56 | 1001.1 |
| 20260506093703 | 71 | 90 | 5.0 | 11.0 | 0.00 | 0.24 | 0.00 | 60 | 1001.2 |
| 20260506093604 | 71 | 91 | 5.0 | 11.0 | 0.00 | 0.24 | 0.00 | 57 | 1001.2 |
| 20260506093503 | 71 | 94 | 5.0 | 11.0 | 0.00 | 0.24 | 0.00 | 56 | 1001.3 |
| 20260506093403 | 71 | 92 | 5.0 | 11.0 | 0.00 | 0.24 | 0.00 | 58 | 1001.3 |
| 20260506093303 | 71 | 91 | 5.0 | 11.0 | 0.00 | 0.24 | 0.00 | 61 | 1001.2 |
| 20260506093203 | 71 | 84 | 4.0 | 8.0 | 0.00 | 0.24 | 0.00 | 63 | 1001.2 |
| 20260506093116 | 71 | 78 | 4.0 | 8.0 | 0.00 | 0.24 | 0.00 | 63 | 1001.2 |
| 20260506093103 | 71 | 77 | 4.0 | 8.0 | 0.00 | 0.24 | 0.00 | 63 | 1001.2 |
| 20260506093003 | 70 | 63 | 3.0 | 8.0 | 0.00 | 0.24 | 0.00 | 64 | 1001.2 |
| 20260506092917 | 70 | 50 | 3.0 | 8.0 | 0.00 | 0.24 | 0.00 | 64 | 1001.2 |
| 20260506092814 | 70 | 41 | 3.0 | 9.0 | 0.00 | 0.24 | 0.00 | 66 | 1001.0 |
| 20260506092603 | 69 | 46 | 3.0 | 9.0 | 0.00 | 0.24 | 0.00 | 65 | 1001.1 |
| 20260506092503 | 69 | 45 | 3.0 | 9.0 | 0.00 | 0.24 | 0.00 | 63 | 1001.0 |
| 20260506092418 | 69 | 48 | 3.0 | 9.0 | 0.00 | 0.24 | 0.00 | 62 | 1001.0 |
| 20260506092403 | 69 | 48 | 3.0 | 9.0 | 0.00 | 0.24 | 0.00 | 62 | 1001.0 |
| 20260506092317 | 69 | 50 | 3.0 | 9.0 | 0.00 | 0.24 | 0.00 | 61 | 1001.1 |
| 20260506092306 | 69 | 50 | 3.0 | 9.0 | 0.00 | 0.24 | 0.00 | 61 | 1001.1 |
| 20260506092118 | 69 | 52 | 3.0 | 9.0 | 0.00 | 0.24 | 0.00 | 65 | 1001.1 |
| 20260506092017 | 69 | 53 | 4.0 | 9.0 | 0.00 | 0.24 | 0.00 | 64 | 1001.0 |
| 20260506092003 | 69 | 55 | 4.0 | 9.0 | 0.00 | 0.24 | 0.00 | 64 | 1001.0 |
| 20260506091703 | 69 | 67 | 4.0 | 9.0 | 0.00 | 0.24 | 0.00 | 64 | 1001.1 |
| 20260506091603 | 69 | 73 | 3.0 | 9.0 | 0.00 | 0.24 | 0.00 | 64 | 1001.0 |
| 20260506091504 | 69 | 104 | 5.0 | 9.0 | 0.00 | 0.24 | 0.00 | 66 | 1001.1 |
| 20260506073503 | 60 | 53 | 5.0 | 12.0 | 0.00 | 0.24 | 0.00 | 82 | 1001.2 |
| 20260506073403 | 60 | 49 | 5.0 | 12.0 | 0.00 | 0.24 | 0.00 | 85 | 1001.2 |
| 20260506073318 | 60 | 46 | 5.0 | 12.0 | 0.00 | 0.24 | 0.00 | 82 | 1001.3 |
| 20260506073303 | 60 | 46 | 5.0 | 13.0 | 0.00 | 0.24 | 0.00 | 82 | 1001.5 |
| 20260506073203 | 60 | 43 | 5.0 | 13.0 | 0.00 | 0.24 | 0.00 | 81 | 1001.5 |
| 20260506073018 | 60 | 35 | 5.0 | 13.0 | 0.00 | 0.24 | 0.00 | 80 | 1001.2 |
| 20260506073003 | 60 | 34 | 5.0 | 13.0 | 0.00 | 0.24 | 0.00 | 80 | 1001.3 |
| 20260506072903 | 60 | 39 | 6.0 | 13.0 | 0.00 | 0.24 | 0.00 | 81 | 1001.3 |
| 20260506072718 | 60 | 44 | 6.0 | 13.0 | 0.00 | 0.24 | 0.00 | 81 | 1001.3 |
| 20260506072703 | 60 | 44 | 6.0 | 13.0 | 0.00 | 0.24 | 0.00 | 82 | 1001.4 |
| 20260506072603 | 59 | 48 | 5.0 | 13.0 | 0.00 | 0.24 | 0.00 | 80 | 1001.4 |
| 20260506072403 | 60 | 52 | 5.0 | 13.0 | 0.00 | 0.24 | 0.00 | 82 | 1001.4 |
| 20260506072305 | 60 | 55 | 5.0 | 13.0 | 0.00 | 0.24 | 0.00 | 81 | 1001.4 |
| 20260506072203 | 59 | 53 | 5.0 | 13.0 | 0.00 | 0.24 | 0.00 | 80 | 1001.5 |
| 20260506072117 | 60 | 54 | 5.0 | 12.0 | 0.00 | 0.24 | 0.00 | 80 | 1001.5 |
| 20260506072103 | 60 | 54 | 5.0 | 12.0 | 0.00 | 0.24 | 0.00 | 80 | 1001.5 |
| 20260506072016 | 60 | 57 | 5.0 | 12.0 | 0.00 | 0.24 | 0.00 | 82 | 1001.3 |
| 20260506072003 | 60 | 58 | 5.0 | 12.0 | 0.00 | 0.24 | 0.00 | 82 | 1001.5 |
| 20260506071817 | 60 | 56 | 5.0 | 14.0 | 0.00 | 0.24 | 0.00 | 82 | 1001.3 |
| 20260506071703 | 60 | 58 | 5.0 | 14.0 | 0.00 | 0.24 | 0.00 | 80 | 1001.3 |
| 20260506071503 | 60 | 56 | 5.0 | 14.0 | 0.00 | 0.24 | 0.00 | 82 | 1001.5 |
| 20260506071403 | 60 | 54 | 5.0 | 14.0 | 0.00 | 0.24 | 0.00 | 81 | 1001.5 |
| 20260506071303 | 59 | 52 | 6.0 | 14.0 | 0.00 | 0.24 | 0.00 | 85 | 1001.5 |
| 20260506071203 | 59 | 54 | 6.0 | 14.0 | 0.00 | 0.24 | 0.00 | 83 | 1001.6 |
| 20260506071103 | 59 | 55 | 6.0 | 14.0 | 0.00 | 0.24 | 0.00 | 81 | 1001.7 |
| 20260506071003 | 59 | 55 | 6.0 | 14.0 | 0.00 | 0.24 | 0.00 | 82 | 1001.7 |
| 20260506070903 | 59 | 58 | 6.0 | 14.0 | 0.00 | 0.24 | 0.00 | 82 | 1001.4 |
| 20260506070803 | 59 | 60 | 6.0 | 14.0 | 0.00 | 0.24 | 0.00 | 82 | 1001.4 |
| 20260506070703 | 59 | 62 | 6.0 | 14.0 | 0.00 | 0.24 | 0.00 | 83 | 1001.4 |
| 20260506070603 | 59 | 64 | 6.0 | 12.0 | 0.00 | 0.24 | 0.00 | 83 | 1001.5 |
| 20260506070503 | 59 | 65 | 6.0 | 12.0 | 0.00 | 0.24 | 0.00 | 84 | 1001.5 |
| 20260506070403 | 58 | 68 | 7.0 | 12.0 | 0.00 | 0.24 | 0.00 | 84 | 1001.4 |
| 20260506070303 | 58 | 71 | 7.0 | 12.0 | 0.00 | 0.24 | 0.00 | 85 | 1001.4 |
| 20260506070203 | 58 | 72 | 7.0 | 12.0 | 0.00 | 0.24 | 0.00 | 83 | 1001.4 |
| 20260506070103 | 58 | 71 | 7.0 | 12.0 | 0.00 | 0.24 | 0.00 | 84 | 1001.4 |
| 20260506062503 | 57 | 64 | 6.0 | 14.0 | 0.00 | 0.24 | 0.00 | 87 | 1001.6 |
| 20260506062315 | 56 | 63 | 5.0 | 14.0 | 0.00 | 0.24 | 0.00 | 86 | 1001.7 |
| 20260506062305 | 56 | 61 | 6.0 | 14.0 | 0.00 | 0.24 | 0.00 | 88 | 1001.5 |
| 20260506062203 | 56 | 57 | 6.0 | 14.0 | 0.00 | 0.24 | 0.00 | 88 | 1001.5 |
| 20260506062003 | 56 | 54 | 6.0 | 14.0 | 0.00 | 0.24 | 0.00 | 89 | 1001.5 |
| 20260506061903 | 56 | 52 | 5.0 | 14.0 | 0.00 | 0.24 | 0.00 | 89 | 1001.5 |
| 20260506061816 | 55 | 53 | 6.0 | 14.0 | 0.00 | 0.24 | 0.00 | 88 | 1001.3 |
| 20260506061803 | 55 | 54 | 6.0 | 14.0 | 0.00 | 0.24 | 0.00 | 88 | 1001.6 |
| 20260506061703 | 55 | 49 | 6.0 | 14.0 | 0.00 | 0.24 | 0.00 | 88 | 1001.6 |
| 20260506061503 | 55 | 50 | 6.0 | 11.0 | 0.00 | 0.24 | 0.00 | 89 | 1001.3 |
| 20260506061403 | 55 | 50 | 6.0 | 11.0 | 0.00 | 0.24 | 0.00 | 90 | 1001.3 |
| 20260506061318 | 55 | 51 | 6.0 | 11.0 | 0.00 | 0.24 | 0.00 | 89 | 1001.3 |
| 20260506061303 | 55 | 53 | 6.0 | 12.0 | 0.00 | 0.24 | 0.00 | 89 | 1001.5 |
| 20260506061203 | 55 | 55 | 6.0 | 12.0 | 0.00 | 0.24 | 0.00 | 89 | 1001.5 |
| 20260506061003 | 55 | 55 | 6.0 | 12.0 | 0.00 | 0.24 | 0.00 | 88 | 1001.6 |
| 20260506060916 | 55 | 54 | 6.0 | 12.0 | 0.00 | 0.24 | 0.00 | 89 | 1001.6 |
| 20260506060903 | 55 | 54 | 6.0 | 12.0 | 0.00 | 0.24 | 0.00 | 89 | 1001.6 |
| 20260506060803 | 55 | 53 | 6.0 | 12.0 | 0.00 | 0.24 | 0.00 | 89 | 1001.5 |
| 20260506060603 | 55 | 51 | 6.0 | 12.0 | 0.00 | 0.24 | 0.00 | 89 | 1001.5 |
| 20260506060503 | 55 | 53 | 6.0 | 12.0 | 0.00 | 0.24 | 0.00 | 89 | 1001.5 |
| 20260506060417 | 55 | 51 | 6.0 | 12.0 | 0.00 | 0.24 | 0.00 | 89 | 1001.6 |
| 20260506060403 | 55 | 50 | 6.0 | 12.0 | 0.00 | 0.24 | 0.00 | 89 | 1001.4 |
| 20260506060303 | 55 | 48 | 6.0 | 12.0 | 0.00 | 0.24 | 0.00 | 89 | 1001.4 |
| 20260506051403 | 53 | 42 | 6.0 | 11.0 | 0.00 | 0.24 | 0.00 | 90 | 1001.5 |
| 20260506051303 | 53 | 41 | 6.0 | 11.0 | 0.00 | 0.24 | 0.00 | 90 | 1001.5 |
| 20260506051203 | 53 | 39 | 6.0 | 11.0 | 0.00 | 0.24 | 0.00 | 90 | 1001.5 |
| 20260506051103 | 53 | 42 | 6.0 | 11.0 | 0.00 | 0.24 | 0.00 | 90 | 1001.5 |
| 20260506051017 | 53 | 41 | 6.0 | 11.0 | 0.00 | 0.24 | 0.00 | 90 | 1001.6 |
| 20260506051003 | 53 | 42 | 5.0 | 11.0 | 0.00 | 0.24 | 0.00 | 90 | 1001.6 |
| 20260506050903 | 53 | 41 | 5.0 | 11.0 | 0.00 | 0.24 | 0.00 | 90 | 1001.6 |
| 20260506050703 | 52 | 43 | 5.0 | 11.0 | 0.00 | 0.24 | 0.00 | 89 | 1001.7 |
| 20260506050603 | 52 | 46 | 6.0 | 10.0 | 0.00 | 0.24 | 0.00 | 90 | 1001.6 |
| 20260506050503 | 52 | 48 | 5.0 | 10.0 | 0.00 | 0.24 | 0.00 | 90 | 1001.5 |
| 20260506050403 | 52 | 50 | 5.0 | 10.0 | 0.00 | 0.24 | 0.00 | 90 | 1001.5 |
| 20260506050303 | 52 | 51 | 5.0 | 10.0 | 0.00 | 0.24 | 0.00 | 90 | 1001.4 |
| 20260506050203 | 52 | 52 | 5.0 | 10.0 | 0.00 | 0.24 | 0.00 | 90 | 1001.4 |
| 20260506050103 | 52 | 52 | 5.0 | 10.0 | 0.00 | 0.24 | 0.00 | 90 | 1001.4 |
| 20260506045103 | 52 | 42 | 4.0 | 10.0 | 0.00 | 0.24 | 0.00 | 90 | 1001.6 |
| 20260506045003 | 52 | 41 | 4.0 | 10.0 | 0.00 | 0.24 | 0.00 | 90 | 1001.8 |
| 20260506044919 | 52 | 41 | 4.0 | 10.0 | 0.00 | 0.24 | 0.00 | 90 | 1001.8 |
| 20260506044903 | 52 | 40 | 4.0 | 10.0 | 0.00 | 0.24 | 0.00 | 90 | 1001.8 |
| 20260506044803 | 52 | 36 | 4.0 | 10.0 | 0.00 | 0.24 | 0.00 | 91 | 1001.6 |
| 20260506044603 | 52 | 36 | 4.0 | 10.0 | 0.00 | 0.24 | 0.00 | 91 | 1001.8 |
| 20260506044503 | 51 | 37 | 4.0 | 10.0 | 0.00 | 0.24 | 0.00 | 91 | 1001.7 |
| 20260506044403 | 51 | 38 | 4.0 | 10.0 | 0.00 | 0.24 | 0.00 | 91 | 1001.6 |
| 20260506044319 | 51 | 36 | 4.0 | 10.0 | 0.00 | 0.24 | 0.00 | 91 | 1001.6 |
| 20260506044303 | 51 | 37 | 4.0 | 10.0 | 0.00 | 0.24 | 0.00 | 91 | 1001.6 |
| 20260506044203 | 51 | 36 | 4.0 | 10.0 | 0.00 | 0.24 | 0.00 | 90 | 1001.5 |
| 20260506044003 | 51 | 29 | 5.0 | 15.0 | 0.00 | 0.24 | 0.00 | 91 | 1001.7 |
| 20260506043903 | 51 | 28 | 5.0 | 15.0 | 0.00 | 0.24 | 0.00 | 91 | 1001.5 |
| 20260506043803 | 51 | 26 | 5.0 | 15.0 | 0.00 | 0.24 | 0.00 | 91 | 1001.5 |
| 20260506043719 | 51 | 22 | 5.0 | 15.0 | 0.00 | 0.24 | 0.00 | 91 | 1001.7 |
| 20260506043703 | 51 | 21 | 5.0 | 15.0 | 0.00 | 0.24 | 0.00 | 91 | 1001.5 |
| 20260506043603 | 51 | 16 | 5.0 | 15.0 | 0.00 | 0.24 | 0.00 | 91 | 1001.7 |
| 20260506043403 | 51 | 5 | 5.0 | 15.0 | 0.00 | 0.24 | 0.00 | 91 | 1001.6 |
| 20260506043303 | 51 | 357 | 5.0 | 15.0 | 0.00 | 0.24 | 0.00 | 91 | 1001.5 |
| 20260506043203 | 51 | 352 | 4.0 | 15.0 | 0.00 | 0.24 | 0.00 | 91 | 1001.5 |
| 20260506043103 | 51 | 343 | 4.0 | 15.0 | 0.00 | 0.24 | 0.00 | 91 | 1001.6 |
| 20260506043003 | 51 | 336 | 4.0 | 15.0 | 0.00 | 0.24 | 0.00 | 91 | 1001.6 |
| 20260506042903 | 51 | 323 | 3.0 | 9.0 | 0.00 | 0.24 | 0.00 | 91 | 1001.4 |
| 20260506042803 | 51 | 334 | 3.0 | 6.0 | 0.00 | 0.24 | 0.00 | 91 | 1001.5 |
| 20260506042703 | 51 | 345 | 3.0 | 6.0 | 0.00 | 0.24 | 0.00 | 91 | 1001.5 |
| 20260506042603 | 51 | 352 | 3.0 | 6.0 | 0.00 | 0.24 | 0.00 | 91 | 1001.6 |
| 20260506042503 | 51 | 357 | 3.0 | 6.0 | 0.00 | 0.24 | 0.00 | 91 | 1001.6 |
| 20260506042403 | 51 | 1 | 3.0 | 6.0 | 0.00 | 0.24 | 0.00 | 91 | 1001.6 |
| 20260506042305 | 51 | 4 | 3.0 | 6.0 | 0.00 | 0.24 | 0.00 | 90 | 1001.7 |
| 20260506042203 | 51 | 3 | 3.0 | 6.0 | 0.00 | 0.24 | 0.00 | 90 | 1001.7 |
| 20260506042103 | 51 | 5 | 3.0 | 6.0 | 0.00 | 0.24 | 0.00 | 90 | 1001.6 |
| 20260506042003 | 51 | 5 | 3.0 | 6.0 | 0.00 | 0.24 | 0.00 | 90 | 1001.6 |
| 20260506041903 | 51 | 6 | 3.0 | 6.0 | 0.00 | 0.24 | 0.00 | 91 | 1001.6 |
| 20260506041816 | 51 | 7 | 3.0 | 6.0 | 0.00 | 0.24 | 0.00 | 91 | 1001.6 |
| 20260506041803 | 51 | 7 | 3.0 | 6.0 | 0.00 | 0.24 | 0.00 | 91 | 1001.7 |
| 20260506041703 | 51 | 8 | 3.0 | 6.0 | 0.00 | 0.24 | 0.00 | 91 | 1001.7 |
| 20260506041503 | 51 | 13 | 3.0 | 5.0 | 0.00 | 0.24 | 0.00 | 91 | 1001.7 |
| 20260506041418 | 51 | 12 | 3.0 | 5.0 | 0.00 | 0.24 | 0.00 | 91 | 1001.7 |
| 20260506041403 | 51 | 13 | 3.0 | 5.0 | 0.00 | 0.24 | 0.00 | 91 | 1001.7 |
| 20260506041317 | 51 | 12 | 2.0 | 4.0 | 0.00 | 0.24 | 0.00 | 91 | 1001.8 |
| 20260506041303 | 51 | 12 | 2.0 | 4.0 | 0.00 | 0.24 | 0.00 | 91 | 1001.8 |
| 20260506041003 | 51 | 17 | 2.0 | 4.0 | 0.00 | 0.24 | 0.00 | 91 | 1002.0 |
| 20260506040903 | 51 | 17 | 2.0 | 5.0 | 0.00 | 0.24 | 0.00 | 91 | 1002.0 |
| 20260506040803 | 51 | 18 | 2.0 | 5.0 | 0.00 | 0.24 | 0.00 | 91 | 1001.9 |
| 20260506040703 | 51 | 19 | 2.0 | 5.0 | 0.00 | 0.24 | 0.00 | 91 | 1001.9 |
| 20260506040603 | 51 | 19 | 2.0 | 5.0 | 0.00 | 0.24 | 0.00 | 91 | 1001.9 |
| 20260506040503 | 51 | 20 | 2.0 | 6.0 | 0.00 | 0.24 | 0.00 | 91 | 1001.7 |
| 20260506040422 | 51 | 21 | 2.0 | 6.0 | 0.00 | 0.24 | 0.00 | 91 | 1001.7 |
| 20260506040403 | 51 | 20 | 2.0 | 6.0 | 0.00 | 0.24 | 0.00 | 91 | 1001.7 |
| 20260506040303 | 51 | 23 | 2.0 | 6.0 | 0.00 | 0.24 | 0.00 | 91 | 1001.7 |
| 20260506040116 | 51 | 25 | 2.0 | 6.0 | 0.00 | 0.24 | 0.00 | 91 | 1001.9 |
| 20260506040003 | 51 | 25 | 3.0 | 6.0 | 0.00 | 0.24 | 0.00 | 91 | 1001.6 |
| 20260506035803 | 51 | 28 | 3.0 | 6.0 | 0.00 | 0.24 | 0.00 | 91 | 1001.9 |
| 20260506035703 | 51 | 29 | 3.0 | 6.0 | 0.00 | 0.24 | 0.00 | 91 | 1001.9 |
| 20260506035617 | 51 | 27 | 3.0 | 6.0 | 0.00 | 0.24 | 0.00 | 91 | 1001.9 |
| 20260506035603 | 51 | 28 | 3.0 | 6.0 | 0.00 | 0.24 | 0.00 | 91 | 1001.9 |
| 20260506035503 | 51 | 29 | 3.0 | 6.0 | 0.00 | 0.24 | 0.00 | 91 | 1001.9 |
| 20260506035305 | 51 | 29 | 3.0 | 7.0 | 0.00 | 0.24 | 0.00 | 91 | 1001.6 |
| 20260506035206 | 51 | 29 | 3.0 | 7.0 | 0.00 | 0.24 | 0.00 | 92 | 1001.8 |
| 20260506035003 | 51 | 27 | 3.0 | 7.0 | 0.00 | 0.24 | 0.00 | 92 | 1001.8 |
| 20260506034903 | 51 | 26 | 3.0 | 7.0 | 0.00 | 0.24 | 0.00 | 92 | 1001.7 |
| 20260506034803 | 51 | 25 | 3.0 | 7.0 | 0.00 | 0.24 | 0.00 | 92 | 1001.7 |
| 20260506034703 | 51 | 25 | 3.0 | 7.0 | 0.00 | 0.24 | 0.00 | 92 | 1001.7 |
| 20260506034603 | 51 | 27 | 3.0 | 7.0 | 0.00 | 0.24 | 0.00 | 92 | 1001.7 |
| 20260506034503 | 51 | 27 | 3.0 | 7.0 | 0.00 | 0.24 | 0.00 | 92 | 1001.8 |
| 20260506034416 | 51 | 27 | 3.0 | 7.0 | 0.00 | 0.24 | 0.00 | 92 | 1001.7 |
| 20260506034403 | 51 | 27 | 3.0 | 7.0 | 0.00 | 0.24 | 0.00 | 92 | 1001.8 |
| 20260506034303 | 51 | 27 | 3.0 | 7.0 | 0.00 | 0.24 | 0.00 | 92 | 1001.8 |
| 20260506034217 | 51 | 27 | 3.0 | 7.0 | 0.00 | 0.24 | 0.00 | 92 | 1002.0 |
| 20260506034103 | 51 | 27 | 3.0 | 6.0 | 0.00 | 0.24 | 0.00 | 92 | 1001.7 |
| 20260506033903 | 51 | 31 | 3.0 | 5.0 | 0.00 | 0.24 | 0.00 | 93 | 1001.8 |
| 20260506033820 | 51 | 32 | 3.0 | 5.0 | 0.00 | 0.24 | 0.00 | 93 | 1001.8 |
| 20260506033803 | 51 | 33 | 3.0 | 5.0 | 0.00 | 0.24 | 0.00 | 93 | 1001.8 |
| 20260506033703 | 51 | 32 | 2.0 | 5.0 | 0.00 | 0.24 | 0.00 | 93 | 1001.8 |
| 20260506033503 | 50 | 28 | 2.0 | 5.0 | 0.00 | 0.24 | 0.00 | 93 | 1001.9 |
| 20260506033403 | 50 | 27 | 2.0 | 5.0 | 0.00 | 0.24 | 0.00 | 93 | 1001.8 |
| 20260506033303 | 50 | 25 | 2.0 | 5.0 | 0.00 | 0.24 | 0.00 | 93 | 1001.8 |
| 20260506033203 | 50 | 27 | 2.0 | 5.0 | 0.00 | 0.24 | 0.00 | 93 | 1001.9 |
| 20260506033103 | 50 | 28 | 2.0 | 5.0 | 0.00 | 0.24 | 0.00 | 93 | 1001.9 |
| 20260506033016 | 50 | 27 | 2.0 | 4.0 | 0.00 | 0.24 | 0.00 | 93 | 1001.8 |
| 20260506033004 | 50 | 28 | 2.0 | 4.0 | 0.00 | 0.24 | 0.00 | 93 | 1001.8 |
| 20260506032919 | 50 | 28 | 2.0 | 4.0 | 0.00 | 0.24 | 0.00 | 93 | 1001.7 |
| 20260506032903 | 50 | 27 | 2.0 | 4.0 | 0.00 | 0.24 | 0.00 | 93 | 1001.9 |
| 20260506032818 | 50 | 27 | 2.0 | 4.0 | 0.00 | 0.24 | 0.00 | 93 | 1001.9 |
| 20260506032619 | 50 | 22 | 2.0 | 4.0 | 0.00 | 0.24 | 0.00 | 93 | 1001.8 |
| 20260506032503 | 50 | 24 | 2.0 | 4.0 | 0.00 | 0.24 | 0.00 | 94 | 1001.8 |
| 20260506032318 | 50 | 24 | 2.0 | 4.0 | 0.00 | 0.24 | 0.00 | 94 | 1002.0 |
| 20260506032305 | 50 | 25 | 2.0 | 4.0 | 0.00 | 0.24 | 0.00 | 94 | 1002.0 |
| 20260506032203 | 50 | 22 | 2.0 | 4.0 | 0.00 | 0.24 | 0.00 | 93 | 1001.9 |
| 20260506032018 | 50 | 20 | 2.0 | 3.0 | 0.00 | 0.24 | 0.00 | 93 | 1001.8 |
| 20260506032003 | 50 | 20 | 2.0 | 3.0 | 0.00 | 0.24 | 0.00 | 93 | 1001.7 |
| 20260506031903 | 50 | 19 | 2.0 | 4.0 | 0.00 | 0.24 | 0.00 | 93 | 1001.7 |
| 20260506031703 | 50 | 16 | 2.0 | 6.0 | 0.00 | 0.24 | 0.00 | 93 | 1001.7 |
| 20260506031617 | 50 | 16 | 2.0 | 6.0 | 0.00 | 0.24 | 0.00 | 93 | 1001.7 |
| 20260506031603 | 50 | 16 | 2.0 | 6.0 | 0.00 | 0.24 | 0.00 | 93 | 1001.7 |
| 20260506031503 | 50 | 15 | 2.0 | 6.0 | 0.00 | 0.24 | 0.00 | 93 | 1001.9 |
| 20260506031303 | 50 | 13 | 2.0 | 6.0 | 0.00 | 0.24 | 0.00 | 93 | 1001.7 |
| 20260506031203 | 50 | 15 | 2.0 | 6.0 | 0.00 | 0.24 | 0.00 | 93 | 1001.7 |
| 20260506031103 | 50 | 15 | 2.0 | 6.0 | 0.00 | 0.24 | 0.00 | 93 | 1001.7 |
| 20260506031003 | 49 | 18 | 2.0 | 6.0 | 0.00 | 0.24 | 0.00 | 93 | 1001.6 |
| 20260506030903 | 50 | 18 | 2.0 | 6.0 | 0.00 | 0.24 | 0.00 | 93 | 1001.6 |
| 20260506030803 | 50 | 19 | 2.0 | 6.0 | 0.00 | 0.24 | 0.00 | 93 | 1001.7 |
| 20260506030703 | 50 | 25 | 2.0 | 4.0 | 0.00 | 0.24 | 0.00 | 93 | 1001.7 |
| 20260506030603 | 50 | 27 | 2.0 | 4.0 | 0.00 | 0.24 | 0.00 | 93 | 1001.6 |
| 20260506030503 | 50 | 27 | 2.0 | 4.0 | 0.00 | 0.24 | 0.00 | 93 | 1001.9 |
| 20260506030403 | 49 | 30 | 2.0 | 4.0 | 0.00 | 0.24 | 0.00 | 93 | 1001.9 |
| 20260506030303 | 49 | 31 | 2.0 | 4.0 | 0.00 | 0.24 | 0.00 | 93 | 1001.8 |
| 20260506030203 | 49 | 34 | 2.0 | 4.0 | 0.00 | 0.24 | 0.00 | 93 | 1001.6 |
| 20260506030103 | 49 | 36 | 2.0 | 4.0 | 0.00 | 0.24 | 0.00 | 93 | 1001.8 |
| 20260506030003 | 50 | 39 | 2.0 | 4.0 | 0.00 | 0.24 | 0.00 | 93 | 1001.7 |